Weather History for KBTM - January, 2014

Change the Weather History Date:

Tuesday, January 7, 2014

  Actual Average Record
Temperature  
Mean Temperature 20 °F 19 °F  
Max Temperature 30 °F 31 °F 51 °F (1902)
Min Temperature 10 °F 7 °F -48 °F (1937)
Degree Days  
Heating Degree Days 45 46  
Month to date heating degree days 326 325  
Since 1 July heating degree days 4044 4289  
Cooling Degree Days 0 0  
Month to date cooling degree days 0 0  
Year to date cooling degree days 0 0  
Moisture  
Dew Point 16 °F    
Average Humidity 78    
Maximum Humidity 92    
Minimum Humidity 63    
Precipitation  
Precipitation 0.00 in 0.01 in 0.33 in (1962)
Month to date precipitation 0.05 0.11  
Year to date precipitation 0.05 0.11  
Sea Level Pressure  
Sea Level Pressure 30.19 in    
Wind  
Wind Speed 2 mph (SE)    
Max Wind Speed 9 mph    
Max Gust Speed 10 mph    
Visibility 10 miles    
Events      
T = Trace of Precipitation, MM = Missing Value Source: NWS Daily Summary

Daily Weather History Graph

Daily Weather History Graph

Search for Another Location

Airport or City:

Trip Planner

Search our weather history database for the weather conditions in past years. The results will help you decide how hot, cold, wet, or windy it might be!

Date:

Astronomy

Jan. 07, 2014 Rise Set
Actual Time 8:11 AM MST 5:01 PM MST
Civil Twilight 7:37 AM MST 5:35 PM MST
Nautical Twilight 6:59 AM MST 6:13 PM MST
Astronomical Twilight 6:23 AM MST 6:49 PM MST
Moon 11:37 AM MST (1/7) 12:01 AM MST (1/7)
Length of Visible Light 9h 58m
Length of Day
8h 50m
Waxing Crescent, 46% of the Moon is Illuminated
Jan 7
Waxing Crescent
Jan 7
First Quarter
Jan 15
Full
Jan 23
Last Quarter
Jan 30
New

Hourly Weather History & Observations

Time (MST) Temp. Windchill Dew Point Humidity Pressure Visibility Wind Dir Wind Speed Gust Speed Precip Events Conditions
12:53 AM 10.9 °F 4.7 °F 8.1 °F 88% 30.29 in 10.0 mi SSE 3.5 mph - N/A   Clear
1:53 AM 12.9 °F - 9.0 °F 84% 30.26 in 10.0 mi Calm Calm - N/A   Partly Cloudy
2:53 AM 12.0 °F - 8.1 °F 84% 30.27 in 10.0 mi Calm Calm - N/A   Mostly Cloudy
3:53 AM 14.0 °F 6.5 °F 10.0 °F 84% 30.25 in 10.0 mi SE 4.6 mph - N/A   Overcast
4:53 AM 15.1 °F - 12.0 °F 88% 30.25 in 10.0 mi Calm Calm - N/A   Overcast
5:53 AM 16.0 °F - 12.0 °F 84% 30.25 in 10.0 mi Calm Calm - N/A   Overcast
6:53 AM 16.0 °F - 12.9 °F 88% 30.24 in 10.0 mi Calm Calm - N/A   Overcast
7:53 AM 17.1 °F - 14.0 °F 88% 30.23 in 10.0 mi Calm Calm - N/A   Overcast
8:53 AM 18.0 °F - 15.1 °F 88% 30.22 in 10.0 mi Calm Calm - N/A   Overcast
9:53 AM 19.9 °F 14.9 °F 16.0 °F 85% 30.21 in 10.0 mi South 3.5 mph - N/A   Overcast
10:53 AM 21.0 °F - 17.1 °F 85% 30.21 in 10.0 mi Calm Calm - N/A   Overcast
11:53 AM 24.1 °F - 18.0 °F 77% 30.18 in 10.0 mi Calm Calm - N/A   Mostly Cloudy
12:53 PM 25.0 °F - 19.0 °F 78% 30.16 in 10.0 mi Calm Calm - N/A   Overcast
1:53 PM 30.0 °F - 19.0 °F 64% 30.12 in 10.0 mi Calm Calm - N/A   Overcast
2:53 PM 27.0 °F 23.0 °F 21.0 °F 78% 30.14 in 9.0 mi South 3.5 mph - N/A   Overcast
3:53 PM 28.9 °F 25.2 °F 19.9 °F 69% 30.14 in 10.0 mi North 3.5 mph - N/A   Overcast
4:53 PM 30.0 °F 24.1 °F 21.0 °F 69% 30.14 in 10.0 mi NW 5.8 mph - N/A   Overcast
5:53 PM 28.9 °F 21.1 °F 18.0 °F 64% 30.14 in 10.0 mi WNW 8.1 mph - N/A   Overcast
6:53 PM 28.0 °F 24.2 °F 18.0 °F 66% 30.14 in 10.0 mi NE 3.5 mph - N/A   Overcast
7:53 PM 26.1 °F - 19.0 °F 75% 30.14 in 10.0 mi Calm Calm - N/A   Overcast
8:53 PM 23.0 °F 17.0 °F 17.1 °F 78% 30.14 in 9.0 mi SE 4.6 mph - N/A   Overcast
9:53 PM 23.0 °F 18.4 °F 18.0 °F 81% 30.12 in 10.0 mi ESE 3.5 mph - N/A   Mostly Cloudy
10:53 PM 21.0 °F - 17.1 °F 85% 30.12 in 10.0 mi Calm Calm - N/A   Overcast
11:53 PM 21.9 °F - 18.0 °F 85% 30.10 in 10.0 mi Calm Calm - N/A   Overcast